Погода в Енидже

Турция     39°55′37″N   27°15′31″E
темп.,
°C
ветер,
м/с
пор.,
м/с
влажн.,
%
обл.,
%
осадки,
мм/ч
давл.,
гПа
погр.,
м
7 марта, вс
вс700:00+4ссв5896100 1.1 1025496
03:00+3ссв5896100 1.6 1026490
06:00+3св489598 0.2 1026527
09:00+3св369599 0.3 1026432
12:00+4ссв3588100 0.1 1026503
15:00+4св3484100 0.3 1025578
18:00+4св358084 0.1 1023701
21:00+1всв229270 0.1 102328
8 марта, пн
пн800:000в11910 0.0 102321
03:00−1юв01880 0.0 102121
06:00−1юв00880 0.0 102021
09:00+1юв11770 0.0 1020147
12:00+8ююз00460 0.0 1019622
15:00+10сз22400 0.0 1018973
18:00+9ссз11520 0.0 1017579
21:00+3в128234 0.0 101822
9 марта, вт
вт900:00+2вюв1180100 0.0 101822
03:00+2ююв1175100 0.0 101822
06:00+1вюв117365 0.0 101722
09:00+5в116251 0.0 101870
12:00+10всв34430 0.0 1017705
15:00+12всв33430 0.0 1016860
18:00+10св345814 0.0 1015493
21:00+4всв12637 0.0 101622
10 марта, ср
ср1000:00+3св12730 0.0 101722
03:00+3в128044 0.0 101622
06:00+3в1278100 0.0 101522
09:00+5в117191 0.0 101578
12:00+10с325561 0.0 1015653
15:00+9ссв776976 0.0 1015836
18:00+4ссв479699 1.8 1016578
21:00+4с369599 3.4 1018450
11 марта, чт
чт1100:00+3с269696 0.2 1021495
03:00+3с379298 0.4 1022679
06:00+2ссз3693100 0.3 1023506
09:00+2ссз249599 0.4 1025311
12:00+4с3683100 0.5 1026703
15:00+6св567099 0.8 10251090
18:00+6ссв346925 0.0 1025793
21:00+1в128613 0.0 102622